CFE88C EHAM-EGLC

Flight info

Callsign CFE88C
Flight time 0h 59m
Altitude 20000
Route VOLLA3V IDRID L980 XAMAN XAMAN1C
Aircraft E190/M-SDE2E3GHIJ1LORVWXY/SB1

Departure

Time 2026-04-27 17:13
Airport Amsterdam Airport Schiphol (EHAM)

Arrival

Time 2026-04-27 18:12
Airport London City Airport (EGLC)
Time Latitude Longitude Altitude Speed Heading
2026-04-27 16:48 52.31363 4.75791 1 ft 0 kts 266°
2026-04-27 16:59 52.31363 4.75793 1 ft 1 kts 266°
2026-04-27 16:59 52.31364 4.75818 1 ft 2 kts 267°
2026-04-27 16:59 52.31364 4.75842 1 ft 2 kts 266°
2026-04-27 17:00 52.31366 4.75883 1 ft 2 kts 267°
2026-04-27 17:00 52.31361 4.75913 1 ft 2 kts 311°
2026-04-27 17:00 52.31348 4.75927 1 ft 2 kts 342°
2026-04-27 17:01 52.31340 4.75930 1 ft 1 kts 358°
2026-04-27 17:01 52.31337 4.75930 1 ft 0 kts 357°
2026-04-27 17:02 52.31351 4.75929 1 ft 7 kts 357°
2026-04-27 17:03 52.31427 4.75908 0 ft 12 kts 317°
2026-04-27 17:03 52.31441 4.75772 0 ft 11 kts 267°
2026-04-27 17:03 52.31436 4.75641 1 ft 11 kts 267°
2026-04-27 17:03 52.31432 4.75506 1 ft 12 kts 267°
2026-04-27 17:04 52.31424 4.75353 0 ft 15 kts 268°
2026-04-27 17:04 52.31419 4.75167 -1 ft 16 kts 268°
2026-04-27 17:04 52.31412 4.74969 -2 ft 18 kts 267°
2026-04-27 17:04 52.31407 4.74752 -6 ft 20 kts 267°
2026-04-27 17:05 52.31399 4.74565 -5 ft 16 kts 265°
2026-04-27 17:05 52.31393 4.74378 -5 ft 16 kts 267°
2026-04-27 17:05 52.31388 4.74194 -4 ft 16 kts 277°
2026-04-27 17:05 52.31477 4.74143 -4 ft 15 kts
2026-04-27 17:06 52.31588 4.74155 -6 ft 16 kts
2026-04-27 17:06 52.31710 4.74167 -8 ft 18 kts
2026-04-27 17:06 52.31836 4.74180 -7 ft 18 kts
2026-04-27 17:06 52.31964 4.74187 -7 ft 18 kts 348°
2026-04-27 17:07 52.32037 4.74043 -7 ft 18 kts 274°
2026-04-27 17:07 52.32045 4.73839 -5 ft 17 kts 274°
2026-04-27 17:07 52.32052 4.73648 -4 ft 17 kts 274°
2026-04-27 17:07 52.32059 4.73455 -4 ft 17 kts 281°
2026-04-27 17:08 52.32130 4.73296 -5 ft 18 kts 320°
2026-04-27 17:08 52.32231 4.73153 -7 ft 19 kts 320°
2026-04-27 17:08 52.32337 4.73004 -7 ft 20 kts 319°
2026-04-27 17:08 52.32437 4.72863 -7 ft 4 kts 319°
2026-04-27 17:09 52.32458 4.72832 -7 ft 10 kts 320°
2026-04-27 17:09 52.32542 4.72716 -6 ft 17 kts 320°
2026-04-27 17:09 52.32636 4.72581 -5 ft 17 kts 321°
2026-04-27 17:09 52.32720 4.72443 -4 ft 17 kts 311°
2026-04-27 17:10 52.32803 4.72291 -4 ft 17 kts 311°
2026-04-27 17:10 52.32841 4.72110 -4 ft 17 kts 267°
2026-04-27 17:10 52.32864 4.71921 -5 ft 17 kts 313°
2026-04-27 17:10 52.32946 4.71766 -7 ft 19 kts 312°
2026-04-27 17:11 52.33037 4.71597 -7 ft 19 kts 310°
2026-04-27 17:11 52.32964 4.71251 -7 ft 19 kts 221°
2026-04-27 17:11 52.32870 4.71093 -7 ft 19 kts 248°
2026-04-27 17:12 52.33062 4.70902 -7 ft 50 kts
2026-04-27 17:12 52.33725 4.70964 -7 ft 137 kts
2026-04-27 17:12 52.34821 4.71056 414 ft 172 kts
2026-04-27 17:13 52.36057 4.71133 1296 ft 186 kts
2026-04-27 17:13 52.37342 4.71256 2288 ft 189 kts
2026-04-27 17:13 52.38708 4.71403 2945 ft 214 kts
2026-04-27 17:13 52.40324 4.71566 3462 ft 247 kts
2026-04-27 17:14 52.42099 4.71698 4320 ft 264 kts 357°
2026-04-27 17:14 52.43785 4.70657 5380 ft 273 kts 322°
2026-04-27 17:14 52.45119 4.68581 6325 ft 269 kts 316°
2026-04-27 17:14 52.46301 4.66173 7337 ft 277 kts 294°
2026-04-27 17:15 52.46625 4.63105 8397 ft 280 kts 272°
2026-04-27 17:15 52.46661 4.59937 9467 ft 281 kts 272°
2026-04-27 17:15 52.46689 4.56744 10484 ft 284 kts 270°
2026-04-27 17:15 52.46174 4.53640 11402 ft 291 kts 238°
2026-04-27 17:16 52.44712 4.51363 12290 ft 297 kts 214°
2026-04-27 17:16 52.42990 4.49575 13211 ft 300 kts 219°
2026-04-27 17:16 52.41683 4.46968 14074 ft 300 kts 243°
2026-04-27 17:16 52.40688 4.43959 14994 ft 303 kts 244°
2026-04-27 17:17 52.39698 4.40933 15903 ft 305 kts 244°
2026-04-27 17:17 52.38702 4.37883 16753 ft 307 kts 244°
2026-04-27 17:17 52.37690 4.34782 17631 ft 309 kts 243°
2026-04-27 17:18 52.35651 4.28539 19312 ft 315 kts 243°
2026-04-27 17:18 52.34634 4.25436 20081 ft 305 kts 243°
2026-04-27 17:18 52.33620 4.22340 20209 ft 314 kts 243°
2026-04-27 17:18 52.32575 4.19154 20232 ft 316 kts 243°
2026-04-27 17:19 52.31517 4.15983 20228 ft 316 kts 239°
2026-04-27 17:19 52.30220 4.13114 20235 ft 318 kts 234°
2026-04-27 17:19 52.28862 4.10262 20228 ft 318 kts 234°
2026-04-27 17:19 52.27507 4.07421 20225 ft 318 kts 234°
2026-04-27 17:20 52.26152 4.04582 20220 ft 317 kts 234°
2026-04-27 17:20 52.24788 4.01728 20223 ft 316 kts 234°
2026-04-27 17:20 52.23426 3.98882 20228 ft 317 kts 234°
2026-04-27 17:20 52.22134 3.96185 20215 ft 316 kts 234°
2026-04-27 17:21 52.20770 3.93340 20216 ft 315 kts 234°
2026-04-27 17:21 52.19401 3.90487 20220 ft 316 kts 234°
2026-04-27 17:21 52.18046 3.87669 20218 ft 316 kts 234°
2026-04-27 17:21 52.16707 3.84884 20213 ft 315 kts 234°
2026-04-27 17:22 52.15342 3.82051 20216 ft 315 kts 234°
2026-04-27 17:22 52.13981 3.79228 20211 ft 315 kts 234°
2026-04-27 17:22 52.12644 3.76459 20209 ft 314 kts 234°
2026-04-27 17:22 52.11276 3.73628 20212 ft 315 kts 234°
2026-04-27 17:23 52.09913 3.70810 20206 ft 316 kts 234°
2026-04-27 17:23 52.08552 3.68001 20204 ft 316 kts 234°
2026-04-27 17:23 52.07212 3.65237 20203 ft 315 kts 234°
2026-04-27 17:23 52.05848 3.62427 20213 ft 315 kts 234°
2026-04-27 17:24 52.04493 3.59638 20211 ft 313 kts 234°
2026-04-27 17:24 52.03129 3.56834 20218 ft 314 kts 234°
2026-04-27 17:24 52.01775 3.54054 20216 ft 314 kts 234°
2026-04-27 17:24 52.00418 3.51271 20212 ft 313 kts 235°
2026-04-27 17:25 51.99102 3.48486 20215 ft 314 kts 237°
2026-04-27 17:25 51.97812 3.45624 20217 ft 313 kts 237°
2026-04-27 17:25 51.96517 3.42755 20217 ft 312 kts 237°
2026-04-27 17:25 51.95238 3.39922 20217 ft 314 kts 237°
2026-04-27 17:26 51.93944 3.37061 20218 ft 314 kts 237°
2026-04-27 17:26 51.92672 3.34251 20220 ft 314 kts 236°
2026-04-27 17:26 51.91372 3.31385 20224 ft 314 kts 236°
2026-04-27 17:26 51.90072 3.28521 20222 ft 313 kts 236°
2026-04-27 17:27 51.88786 3.25690 20219 ft 314 kts 236°
2026-04-27 17:27 51.87478 3.22813 20214 ft 314 kts 236°
2026-04-27 17:27 51.86194 3.19993 20221 ft 313 kts 236°
2026-04-27 17:27 51.85079 3.16995 20215 ft 309 kts 255°
2026-04-27 17:28 51.84715 3.13581 20247 ft 316 kts 264°
2026-04-27 17:28 51.84460 3.09878 20249 ft 344 kts 264°
2026-04-27 17:28 51.83933 3.01914 20212 ft 360 kts 264°
2026-04-27 17:29 51.83670 2.97898 20211 ft 359 kts 264°
2026-04-27 17:29 51.83406 2.93888 20211 ft 360 kts 264°
2026-04-27 17:29 51.83139 2.89844 20212 ft 358 kts 264°
2026-04-27 17:29 51.82874 2.85847 20210 ft 358 kts 264°
2026-04-27 17:30 51.82605 2.81828 20210 ft 359 kts 264°
2026-04-27 17:30 51.82069 2.73849 20215 ft 358 kts 265°
2026-04-27 17:30 51.81794 2.69794 20212 ft 357 kts 265°
2026-04-27 17:31 51.81527 2.65885 20196 ft 346 kts 265°
2026-04-27 17:31 51.81266 2.62083 19883 ft 333 kts 265°
2026-04-27 17:31 51.81014 2.58440 19151 ft 331 kts 265°
2026-04-27 17:31 51.80757 2.54728 18223 ft 336 kts 265°
2026-04-27 17:32 51.80494 2.50953 17243 ft 341 kts 265°
2026-04-27 17:32 51.79960 2.43342 15362 ft 346 kts 265°
2026-04-27 17:32 51.79688 2.39489 14440 ft 347 kts 265°
2026-04-27 17:33 51.79410 2.35580 13522 ft 348 kts 264°
2026-04-27 17:33 51.79135 2.31722 12632 ft 347 kts 263°
2026-04-27 17:33 51.78860 2.27886 11758 ft 346 kts 263°
2026-04-27 17:33 51.78583 2.24042 10886 ft 346 kts 263°
2026-04-27 17:34 51.78336 2.20176 10011 ft 344 kts 264°
2026-04-27 17:34 51.78112 2.16343 9320 ft 338 kts 264°
2026-04-27 17:34 51.77925 2.13145 9231 ft 317 kts 264°
2026-04-27 17:34 51.77724 2.09719 9208 ft 295 kts 264°
2026-04-27 17:35 51.77533 2.06497 9211 ft 281 kts 264°
2026-04-27 17:35 51.77356 2.03514 9228 ft 282 kts 264°
2026-04-27 17:35 51.77167 2.00346 9229 ft 285 kts 264°
2026-04-27 17:35 51.76975 1.97139 9226 ft 285 kts 264°
2026-04-27 17:36 51.76780 1.93920 9226 ft 287 kts 264°
2026-04-27 17:36 51.76588 1.90734 9229 ft 287 kts 264°
2026-04-27 17:36 51.76393 1.87519 9238 ft 283 kts 264°
2026-04-27 17:36 51.76201 1.84373 9226 ft 278 kts 264°
2026-04-27 17:37 51.76014 1.81319 9228 ft 282 kts 264°
2026-04-27 17:37 51.75822 1.78210 9233 ft 282 kts 264°
2026-04-27 17:37 51.75624 1.75022 9229 ft 288 kts 264°
2026-04-27 17:37 51.75422 1.71783 9229 ft 289 kts 266°
2026-04-27 17:38 51.75223 1.68572 9226 ft 291 kts 265°
2026-04-27 17:38 51.75017 1.65284 9231 ft 290 kts 264°
2026-04-27 17:38 51.74813 1.62052 9226 ft 291 kts 265°
2026-04-27 17:38 51.74608 1.58817 9228 ft 285 kts 266°
2026-04-27 17:39 51.74411 1.55722 9222 ft 279 kts 266°
2026-04-27 17:39 51.74215 1.52642 9226 ft 276 kts 266°
2026-04-27 17:39 51.74017 1.49549 9224 ft 275 kts 265°
2026-04-27 17:39 51.73819 1.46464 9224 ft 275 kts 266°
2026-04-27 17:40 51.73262 1.43516 9232 ft 280 kts 239°
2026-04-27 17:40 51.72134 1.40953 9239 ft 280 kts 236°
2026-04-27 17:40 51.70945 1.38448 9234 ft 281 kts 234°
2026-04-27 17:40 51.69731 1.35970 9230 ft 282 kts 234°
2026-04-27 17:41 51.68507 1.33509 9227 ft 283 kts 233°
2026-04-27 17:41 51.67252 1.31005 9226 ft 284 kts 233°
2026-04-27 17:41 51.66020 1.28555 9227 ft 285 kts 233°
2026-04-27 17:41 51.64761 1.26059 9230 ft 285 kts 233°
2026-04-27 17:42 51.63499 1.23560 9224 ft 285 kts 233°
2026-04-27 17:42 51.62246 1.21083 9227 ft 286 kts 233°
2026-04-27 17:42 51.61006 1.18634 9227 ft 284 kts 234°
2026-04-27 17:42 51.59836 1.16325 9222 ft 285 kts 234°
2026-04-27 17:43 51.58802 1.14286 9221 ft 285 kts 233°
2026-04-27 17:43 51.57513 1.11748 9236 ft 284 kts 234°
2026-04-27 17:43 51.56342 1.09442 9219 ft 285 kts 233°
2026-04-27 17:43 51.55047 1.06896 9222 ft 282 kts 234°
2026-04-27 17:44 51.53838 1.04526 8946 ft 272 kts 234°
2026-04-27 17:44 51.52639 1.02171 8095 ft 271 kts 234°
2026-04-27 17:44 51.51449 0.99836 7284 ft 274 kts 234°
2026-04-27 17:44 51.50238 0.97464 6621 ft 280 kts 233°
2026-04-27 17:45 51.48992 0.95025 6263 ft 281 kts 233°
2026-04-27 17:45 51.47871 0.92493 6213 ft 275 kts 252°
2026-04-27 17:45 51.47617 0.89512 6238 ft 268 kts 275°
2026-04-27 17:45 51.47706 0.86557 6226 ft 268 kts 276°
2026-04-27 17:46 51.47810 0.83566 6219 ft 267 kts 277°
2026-04-27 17:46 51.47918 0.80620 6208 ft 267 kts 277°
2026-04-27 17:46 51.48028 0.77637 6212 ft 267 kts 277°
2026-04-27 17:46 51.48139 0.74649 6211 ft 268 kts 277°
2026-04-27 17:47 51.48251 0.71659 6212 ft 268 kts 277°
2026-04-27 17:47 51.48323 0.69693 6213 ft 268 kts 277°
2026-04-27 17:47 51.48471 0.65692 6213 ft 267 kts 277°
2026-04-27 17:47 51.48581 0.62696 5800 ft 272 kts 277°
2026-04-27 17:48 51.48689 0.59679 5467 ft 267 kts 277°
2026-04-27 17:48 51.48796 0.56729 5160 ft 265 kts 277°
2026-04-27 17:48 51.48902 0.53758 4721 ft 268 kts 277°
2026-04-27 17:48 51.49007 0.50823 4380 ft 264 kts 277°
2026-04-27 17:49 51.49082 0.47891 4079 ft 265 kts 268°
2026-04-27 17:49 51.48467 0.45163 4010 ft 254 kts 244°
2026-04-27 17:49 51.47616 0.42779 3977 ft 237 kts 243°
2026-04-27 17:49 51.46829 0.40602 3978 ft 229 kts 243°
2026-04-27 17:50 51.46016 0.38367 3992 ft 228 kts 243°
2026-04-27 17:50 51.44434 0.34047 3637 ft 224 kts 242°
2026-04-27 17:50 51.43637 0.31877 3236 ft 227 kts 242°
2026-04-27 17:51 51.43134 0.29499 3039 ft 224 kts 272°
2026-04-27 17:51 51.43177 0.27040 3020 ft 224 kts 275°
2026-04-27 17:51 51.43236 0.24900 3003 ft 222 kts 276°
2026-04-27 17:51 51.43301 0.22698 2978 ft 208 kts 276°
2026-04-27 17:52 51.43359 0.20805 3027 ft 195 kts 276°
2026-04-27 17:52 51.43405 0.19345 3041 ft 194 kts 277°
2026-04-27 17:52 51.43455 0.17801 3130 ft 189 kts 276°
2026-04-27 17:52 51.43517 0.15841 2969 ft 176 kts 277°
2026-04-27 17:53 51.43580 0.13946 2494 ft 184 kts 276°
2026-04-27 17:53 51.43650 0.11848 2070 ft 194 kts 275°
2026-04-27 17:53 51.43720 0.09679 2026 ft 197 kts 275°
2026-04-27 17:53 51.43778 0.07827 2007 ft 198 kts 276°
2026-04-27 17:54 51.43844 0.05766 1999 ft 198 kts 275°
2026-04-27 17:54 51.43908 0.03723 1998 ft 197 kts 275°
2026-04-27 17:54 51.43969 0.01773 1982 ft 185 kts 275°
2026-04-27 17:54 51.44030 -0.00212 1957 ft 169 kts 276°
2026-04-27 17:55 51.44089 -0.02076 1987 ft 169 kts 276°
2026-04-27 17:55 51.44146 -0.03910 1998 ft 172 kts 276°
2026-04-27 17:55 51.44206 -0.05824 2002 ft 173 kts 276°
2026-04-27 17:55 51.44262 -0.07638 1997 ft 173 kts 276°
2026-04-27 17:56 51.44518 -0.09501 1979 ft 167 kts 307°
2026-04-27 17:56 51.45365 -0.10521 1965 ft 139 kts 347°
2026-04-27 17:56 51.46215 -0.10912 1949 ft 119 kts 350°
2026-04-27 17:56 51.47005 -0.11250 1995 ft 119 kts 350°
2026-04-27 17:57 51.47815 -0.11586 2013 ft 120 kts 351°
2026-04-27 17:57 51.48635 -0.11806 2001 ft 117 kts 13°
2026-04-27 17:57 51.49314 -0.11181 2026 ft 114 kts 44°
2026-04-27 17:57 51.49873 -0.10278 2009 ft 113 kts 45°
2026-04-27 17:58 51.50415 -0.09374 2008 ft 114 kts 45°
2026-04-27 17:58 51.50764 -0.08239 2004 ft 118 kts 82°
2026-04-27 17:58 51.50779 -0.06967 2017 ft 119 kts 85°
2026-04-27 17:58 51.50774 -0.05640 2009 ft 119 kts 86°
2026-04-27 17:59 51.50759 -0.04305 2006 ft 120 kts 87°
2026-04-27 17:59 51.50778 -0.02971 1889 ft 124 kts 86°
2026-04-27 17:59 51.50744 -0.01543 1315 ft 133 kts 90°
2026-04-27 17:59 51.50700 -0.00122 1031 ft 120 kts 90°
2026-04-27 18:00 51.50660 0.01191 728 ft 119 kts 91°
2026-04-27 18:00 51.50619 0.02498 482 ft 118 kts 91°
2026-04-27 18:00 51.50574 0.03821 181 ft 119 kts 92°
2026-04-27 18:00 51.50540 0.05104 25 ft 110 kts 92°
2026-04-27 18:01 51.50496 0.06370 233 ft 123 kts 92°
2026-04-27 18:01 51.50471 0.07737 768 ft 124 kts 89°
2026-04-27 18:01 51.50478 0.09123 1285 ft 129 kts 85°
2026-04-27 18:01 51.50429 0.10555 1834 ft 124 kts 91°
2026-04-27 18:02 51.50339 0.12030 2025 ft 151 kts 91°
2026-04-27 18:02 51.50238 0.13917 2063 ft 180 kts 91°
2026-04-27 18:02 51.50140 0.15915 2006 ft 175 kts 92°
2026-04-27 18:02 51.49614 0.17656 1886 ft 181 kts 139°
2026-04-27 18:03 51.48365 0.18320 1973 ft 200 kts 183°
2026-04-27 18:03 51.47112 0.17423 2026 ft 204 kts 228°
2026-04-27 18:03 51.46549 0.15435 2042 ft 202 kts 266°
2026-04-27 18:03 51.46484 0.13209 2020 ft 200 kts 271°
2026-04-27 18:04 51.46451 0.11013 2007 ft 200 kts 271°
2026-04-27 18:04 51.46412 0.08781 2008 ft 200 kts 271°
2026-04-27 18:04 51.46378 0.06561 2005 ft 200 kts 271°
2026-04-27 18:04 51.46346 0.04396 1984 ft 190 kts 271°
2026-04-27 18:05 51.46309 0.02371 1981 ft 175 kts 271°
2026-04-27 18:05 51.46276 0.00515 2038 ft 169 kts 271°
2026-04-27 18:05 51.46244 -0.01368 2101 ft 169 kts 271°
2026-04-27 18:05 51.46209 -0.03251 2027 ft 172 kts 271°
2026-04-27 18:06 51.46202 -0.05167 2012 ft 170 kts 274°
2026-04-27 18:06 51.46218 -0.06964 1987 ft 163 kts 274°
2026-04-27 18:06 51.46233 -0.08803 1996 ft 162 kts 274°
2026-04-27 18:06 51.46242 -0.10572 1976 ft 152 kts 274°
2026-04-27 18:07 51.46244 -0.12151 1947 ft 135 kts 274°
2026-04-27 18:07 51.46240 -0.13640 1988 ft 135 kts 274°
2026-04-27 18:07 51.46416 -0.15082 1992 ft 129 kts 310°
2026-04-27 18:07 51.47099 -0.15876 2008 ft 122 kts 354°
2026-04-27 18:08 51.47885 -0.15619 2009 ft 116 kts 39°
2026-04-27 18:08 51.48450 -0.14706 2012 ft 115 kts 48°
2026-04-27 18:08 51.48978 -0.13747 1999 ft 116 kts 48°
2026-04-27 18:08 51.49504 -0.12783 1999 ft 115 kts 47°
2026-04-27 18:09 51.50029 -0.11815 2001 ft 114 kts 48°
2026-04-27 18:09 51.50551 -0.10847 2004 ft 114 kts 48°
2026-04-27 18:09 51.50969 -0.09798 1988 ft 117 kts 76°
2026-04-27 18:09 51.50960 -0.08461 2017 ft 120 kts 88°
2026-04-27 18:10 51.50917 -0.07198 1999 ft 120 kts 88°
2026-04-27 18:10 51.50879 -0.05894 1998 ft 120 kts 88°
2026-04-27 18:10 51.50837 -0.04545 1997 ft 120 kts 88°
2026-04-27 18:10 51.50795 -0.03182 1696 ft 121 kts 89°
2026-04-27 18:11 51.50753 -0.01845 1406 ft 119 kts 90°
2026-04-27 18:11 51.50713 -0.00532 1127 ft 119 kts 90°
2026-04-27 18:11 51.50672 0.00779 844 ft 119 kts 91°
2026-04-27 18:11 51.50629 0.02102 558 ft 119 kts 92°
2026-04-27 18:12 51.50592 0.03440 268 ft 119 kts 92°
2026-04-27 18:12 51.50550 0.04734 25 ft 117 kts 92°
2026-04-27 18:12 51.50516 0.05749 22 ft 60 kts 94°
2026-04-27 18:12 51.50503 0.06180 22 ft 18 kts 94°
2026-04-27 18:13 51.50469 0.06329 22 ft 13 kts 144°
2026-04-27 18:13 51.50410 0.06275 22 ft 12 kts 271°
2026-04-27 18:13 51.50418 0.06140 22 ft 12 kts 274°
2026-04-27 18:13 51.50423 0.05989 22 ft 14 kts 272°
2026-04-27 18:14 51.50428 0.05830 22 ft 14 kts 273°
2026-04-27 18:14 51.50434 0.05666 22 ft 15 kts 272°
2026-04-27 18:14 51.50438 0.05514 22 ft 15 kts 272°
2026-04-27 18:14 51.50443 0.05345 22 ft 13 kts 273°
2026-04-27 18:15 51.50448 0.05220 22 ft 11 kts 273°
2026-04-27 18:15 51.50452 0.05096 22 ft 11 kts 274°
2026-04-27 18:15 51.50463 0.04965 22 ft 12 kts 272°
2026-04-27 18:15 51.50467 0.04826 22 ft 12 kts 272°
2026-04-27 18:16 51.50471 0.04682 22 ft 13 kts 272°
2026-04-27 18:16 51.50472 0.04598 22 ft 2 kts 242°
2026-04-27 18:16 51.50451 0.04587 22 ft 3 kts 178°
2026-04-27 18:16 51.50447 0.04586 22 ft 0 kts 194°
2026-04-27 18:17 51.50445 0.04582 22 ft 0 kts 238°
2026-04-27 18:17 51.50447 0.04572 22 ft 1 kts 299°
2026-04-27 18:17 51.50442 0.04582 22 ft 0 kts 343°
2026-04-27 18:18 51.50444 0.04579 22 ft 0 kts 311°
2026-04-27 18:18 51.50445 0.04573 22 ft 0 kts 296°
2026-04-27 18:18 51.50446 0.04572 22 ft 0 kts 306°